| time (UTC) | temp F | wind direction | speed MPH | gust MPH | rain 1hr in | rain 24hr in | rain mn in | humidity % | barometer mb |
| 20260903121503 | 92 | 95 | 2.0 | 7.0 | 0.00 | 0.00 | 0.00 | 41 | 1015.1 |
| 20260903121216 | 91 | 100 | 3.0 | 7.0 | 0.00 | 0.00 | 0.00 | 41 | 1015.3 |
| 20260903120504 | 92 | 95 | 3.0 | 9.0 | 0.00 | 0.00 | 0.00 | 39 | 1015.2 |
| 20260903120003 | 91 | 100 | 3.0 | 9.0 | 0.00 | 0.00 | 0.00 | 39 | 1015.2 |
| 20260903115715 | 92 | 105 | 2.0 | 9.0 | 0.00 | 0.00 | 0.00 | 40 | 1015.2 |
| 20260903115003 | 90 | 69 | 2.0 | 6.0 | 0.00 | 0.00 | 0.00 | 39 | 1015.4 |
| 20260903114504 | 91 | 96 | 2.0 | 5.0 | 0.00 | 0.00 | 0.00 | 41 | 1015.2 |
| 20260903114005 | 90 | 121 | 4.0 | 10.0 | 0.00 | 0.00 | 0.00 | 44 | 1015.3 |
| 20260903113504 | 90 | 101 | 4.0 | 10.0 | 0.00 | 0.00 | 0.00 | 44 | 1015.5 |
| 20260903113003 | 90 | 85 | 3.0 | 9.0 | 0.00 | 0.00 | 0.00 | 46 | 1015.4 |
| 20260903112504 | 90 | 101 | 3.0 | 9.0 | 0.00 | 0.00 | 0.00 | 47 | 1015.3 |
| 20260903112004 | 90 | 93 | 2.0 | 9.0 | 0.00 | 0.00 | 0.00 | 46 | 1015.5 |
| 20260903111503 | 89 | 84 | 2.0 | 7.0 | 0.00 | 0.00 | 0.00 | 45 | 1015.7 |
| 20260903111004 | 89 | 74 | 2.0 | 7.0 | 0.00 | 0.00 | 0.00 | 48 | 1015.6 |
| 20260903110504 | 90 | 59 | 1.0 | 6.0 | 0.00 | 0.00 | 0.00 | 47 | 1015.6 |
| 20260903110004 | 89 | 66 | 2.0 | 7.0 | 0.00 | 0.00 | 0.00 | 48 | 1015.6 |
| 20260903105504 | 90 | 103 | 2.0 | 7.0 | 0.00 | 0.00 | 0.00 | 49 | 1015.4 |
| 20260903105214 | 91 | 112 | 2.0 | 7.0 | 0.00 | 0.00 | 0.00 | 49 | 1015.5 |
| 20260903104717 | 90 | 103 | 3.0 | 9.0 | 0.00 | 0.00 | 0.00 | 48 | 1015.5 |
| 20260903104005 | 90 | 98 | 2.0 | 7.0 | 0.00 | 0.00 | 0.00 | 49 | 1015.8 |
| 20260903103717 | 90 | 100 | 2.0 | 7.0 | 0.00 | 0.00 | 0.00 | 48 | 1015.8 |
| 20260903103003 | 91 | 132 | 2.0 | 6.0 | 0.00 | 0.00 | 0.00 | 46 | 1015.8 |
| 20260903102503 | 93 | 142 | 2.0 | 6.0 | 0.00 | 0.00 | 0.00 | 44 | 1015.9 |
| 20260903102004 | 92 | 123 | 2.0 | 8.0 | 0.00 | 0.00 | 0.00 | 46 | 1015.9 |
| 20260903101503 | 91 | 127 | 2.0 | 8.0 | 0.00 | 0.00 | 0.00 | 47 | 1015.9 |
| 20260903101004 | 93 | 142 | 2.0 | 6.0 | 0.00 | 0.00 | 0.00 | 44 | 1016.0 |
| 20260903100503 | 92 | 105 | 2.0 | 8.0 | 0.00 | 0.00 | 0.00 | 45 | 1016.0 |
| 20260903100004 | 91 | 98 | 2.0 | 8.0 | 0.00 | 0.00 | 0.00 | 45 | 1016.1 |
| 20260903095716 | 93 | 122 | 2.0 | 8.0 | 0.00 | 0.00 | 0.00 | 44 | 1016.2 |
| 20260903095003 | 92 | 158 | 2.0 | 4.0 | 0.00 | 0.00 | 0.00 | 42 | 1016.1 |
| 20260903094503 | 92 | 155 | 2.0 | 6.0 | 0.00 | 0.00 | 0.00 | 43 | 1016.2 |
| 20260903094003 | 93 | 177 | 2.0 | 6.0 | 0.00 | 0.00 | 0.00 | 39 | 1016.4 |
| 20260903093503 | 93 | 182 | 1.0 | 3.0 | 0.00 | 0.00 | 0.00 | 39 | 1016.3 |
| 20260903093004 | 93 | 173 | 2.0 | 7.0 | 0.00 | 0.00 | 0.00 | 43 | 1016.4 |
| 20260903092503 | 94 | 172 | 2.0 | 7.0 | 0.00 | 0.00 | 0.00 | 39 | 1016.2 |
| 20260903092217 | 94 | 147 | 1.0 | 4.0 | 0.00 | 0.00 | 0.00 | 37 | 1016.4 |
| 20260903091504 | 94 | 186 | 1.0 | 4.0 | 0.00 | 0.00 | 0.00 | 37 | 1016.5 |
| 20260903091213 | 93 | 179 | 2.0 | 4.0 | 0.00 | 0.00 | 0.00 | 36 | 1016.6 |
| 20260903090503 | 92 | 177 | 2.0 | 6.0 | 0.00 | 0.00 | 0.00 | 38 | 1016.6 |
| 20260903090003 | 91 | 195 | 2.0 | 6.0 | 0.00 | 0.00 | 0.00 | 40 | 1016.7 |
| 20260903085503 | 92 | 192 | 2.0 | 5.0 | 0.00 | 0.00 | 0.00 | 40 | 1016.7 |
| 20260903085215 | 92 | 185 | 2.0 | 6.0 | 0.00 | 0.00 | 0.00 | 42 | 1016.5 |
| 20260903084503 | 91 | 186 | 2.0 | 6.0 | 0.00 | 0.00 | 0.00 | 43 | 1016.6 |
| 20260903084216 | 92 | 190 | 2.0 | 4.0 | 0.00 | 0.00 | 0.00 | 43 | 1016.9 |
| 20260903083504 | 91 | 192 | 2.0 | 4.0 | 0.00 | 0.00 | 0.00 | 43 | 1016.7 |
| 20260903083003 | 92 | 184 | 1.0 | 3.0 | 0.00 | 0.00 | 0.00 | 44 | 1016.7 |
| 20260903082504 | 93 | 197 | 1.0 | 5.0 | 0.00 | 0.00 | 0.00 | 44 | 1016.7 |
| 20260903082003 | 90 | 201 | 2.0 | 6.0 | 0.00 | 0.00 | 0.00 | 44 | 1016.8 |
| 20260903081503 | 89 | 199 | 2.0 | 6.0 | 0.00 | 0.00 | 0.00 | 48 | 1016.7 |
| 20260903081003 | 89 | 194 | 2.0 | 6.0 | 0.00 | 0.00 | 0.00 | 48 | 1016.9 |
| 20260903080503 | 89 | 192 | 2.0 | 6.0 | 0.00 | 0.00 | 0.00 | 49 | 1016.7 |
| 20260903080004 | 90 | 199 | 1.0 | 7.0 | 0.00 | 0.00 | 0.00 | 49 | 1016.5 |
| 20260903075504 | 89 | 200 | 2.0 | 7.0 | 0.00 | 0.00 | 0.00 | 49 | 1016.5 |
| 20260903075004 | 89 | 197 | 2.0 | 6.0 | 0.00 | 0.00 | 0.00 | 50 | 1016.6 |
| 20260903074504 | 88 | 198 | 2.0 | 6.0 | 0.00 | 0.00 | 0.00 | 52 | 1016.7 |
| 20260903074003 | 87 | 196 | 2.0 | 6.0 | 0.00 | 0.00 | 0.00 | 54 | 1016.7 |
| 20260903073503 | 87 | 193 | 2.0 | 6.0 | 0.00 | 0.00 | 0.00 | 55 | 1016.7 |
| 20260903073217 | 89 | 193 | 2.0 | 4.0 | 0.00 | 0.00 | 0.00 | 55 | 1016.6 |
| 20260903072503 | 88 | 189 | 2.0 | 4.0 | 0.00 | 0.00 | 0.00 | 55 | 1016.6 |
| 20260903072213 | 88 | 187 | 2.0 | 4.0 | 0.00 | 0.00 | 0.00 | 56 | 1016.5 |
| 20260903071503 | 87 | 189 | 1.0 | 3.0 | 0.00 | 0.00 | 0.00 | 55 | 1016.6 |
| 20260903071214 | 87 | 192 | 2.0 | 3.0 | 0.00 | 0.00 | 0.00 | 57 | 1016.7 |
| 20260903070503 | 88 | 190 | 1.0 | 3.0 | 0.00 | 0.00 | 0.00 | 54 | 1016.7 |
| 20260903070004 | 88 | 174 | 1.0 | 3.0 | 0.00 | 0.00 | 0.00 | 56 | 1016.7 |
| 20260903065503 | 88 | 163 | 0.0 | 2.0 | 0.00 | 0.00 | 0.00 | 56 | 1016.6 |
| 20260903065004 | 88 | 194 | 0.0 | 2.0 | 0.00 | 0.00 | 0.00 | 55 | 1016.7 |
| 20260903064503 | 88 | 195 | 1.0 | 2.0 | 0.00 | 0.00 | 0.00 | 58 | 1016.7 |
| 20260903064003 | 88 | 184 | 0.0 | 2.0 | 0.00 | 0.00 | 0.00 | 60 | 1016.6 |
| 20260903063504 | 88 | 178 | 0.0 | 2.0 | 0.00 | 0.00 | 0.00 | 59 | 1016.5 |
| 20260903063213 | 87 | 178 | 0.0 | 2.0 | 0.00 | 0.00 | 0.00 | 59 | 1016.5 |
| 20260903062504 | 87 | 189 | 0.0 | 2.0 | 0.00 | 0.00 | 0.00 | 59 | 1016.7 |
| 20260903062003 | 86 | 175 | 1.0 | 2.0 | 0.00 | 0.00 | 0.00 | 61 | 1016.9 |
| 20260903061503 | 86 | 176 | 1.0 | 2.0 | 0.00 | 0.00 | 0.00 | 61 | 1016.8 |
| 20260903061215 | 86 | 191 | 0.0 | 2.0 | 0.00 | 0.00 | 0.00 | 60 | 1016.8 |
| 20260903060505 | 86 | 187 | 0.0 | 1.0 | 0.00 | 0.00 | 0.00 | 59 | 1016.9 |
| 20260903060216 | 86 | 169 | 0.0 | 1.0 | 0.00 | 0.00 | 0.00 | 57 | 1016.9 |
| 20260903055714 | 85 | 165 | 0.0 | 1.0 | 0.00 | 0.00 | 0.00 | 58 | 1016.9 |
| 20260903055003 | 84 | 183 | 0.0 | 1.0 | 0.00 | 0.00 | 0.00 | 58 | 1016.9 |
| 20260903054504 | 84 | 164 | 0.0 | 1.0 | 0.00 | 0.00 | 0.00 | 59 | 1016.8 |
| 20260903054003 | 82 | 153 | 0.0 | 1.0 | 0.00 | 0.00 | 0.00 | 60 | 1016.8 |
| 20260903053504 | 82 | 153 | 0.0 | 1.0 | 0.00 | 0.00 | 0.00 | 61 | 1016.8 |
| 20260903053003 | 80 | 170 | 0.0 | 2.0 | 0.00 | 0.00 | 0.00 | 63 | 1016.8 |
| 20260903052503 | 80 | 171 | 0.0 | 2.0 | 0.00 | 0.00 | 0.00 | 63 | 1016.7 |
| 20260903052003 | 80 | 192 | 0.0 | 1.0 | 0.00 | 0.00 | 0.00 | 64 | 1017.0 |
| 20260903051503 | 79 | 189 | 0.0 | 1.0 | 0.00 | 0.00 | 0.00 | 65 | 1016.8 |
| 20260903051004 | 79 | 0 | 0.0 | 0.0 | 0.00 | 0.00 | 0.00 | 66 | 1016.7 |
| 20260903050714 | 78 | 197 | 0.0 | 1.0 | 0.00 | 0.00 | 0.00 | 66 | 1016.6 |
| 20260903050003 | 78 | 198 | 0.0 | 1.0 | 0.00 | 0.00 | 0.00 | 67 | 1016.8 |
| 20260903045503 | 78 | 201 | 0.0 | 1.0 | 0.00 | 0.00 | 0.00 | 67 | 1016.6 |
| 20260903045003 | 77 | 208 | 0.0 | 1.0 | 0.00 | 0.00 | 0.00 | 68 | 1016.8 |
| 20260903044503 | 77 | 216 | 0.0 | 1.0 | 0.00 | 0.00 | 0.00 | 69 | 1016.8 |
| 20260903044004 | 77 | 207 | 0.0 | 1.0 | 0.00 | 0.00 | 0.00 | 69 | 1016.6 |
| 20260903043504 | 77 | 203 | 0.0 | 1.0 | 0.00 | 0.00 | 0.00 | 69 | 1016.6 |
| 20260903043003 | 77 | 193 | 0.0 | 1.0 | 0.00 | 0.00 | 0.00 | 69 | 1016.7 |
| 20260903042504 | 77 | 185 | 0.0 | 1.0 | 0.00 | 0.00 | 0.00 | 69 | 1016.5 |
| 20260903042004 | 77 | 181 | 0.0 | 1.0 | 0.00 | 0.00 | 0.00 | 70 | 1016.7 |
| 20260903041503 | 77 | 179 | 0.0 | 1.0 | 0.00 | 0.00 | 0.00 | 70 | 1016.7 |
| 20260903041003 | 77 | 182 | 0.0 | 1.0 | 0.00 | 0.00 | 0.00 | 70 | 1016.7 |
| 20260903040503 | 77 | 192 | 0.0 | 1.0 | 0.00 | 0.00 | 0.00 | 71 | 1016.6 |
| 20260903040008 | 77 | 192 | 0.0 | 1.0 | 0.00 | 0.00 | 0.00 | 71 | 1016.8 |
| 20260903035715 | 77 | 190 | 0.0 | 1.0 | 0.00 | 0.00 | 0.00 | 71 | 1016.7 |
| 20260903035003 | 78 | 217 | 0.0 | 1.0 | 0.00 | 0.00 | 0.00 | 71 | 1016.8 |
| 20260903034503 | 78 | 218 | 0.0 | 1.0 | 0.00 | 0.00 | 0.00 | 71 | 1016.5 |
| 20260903034004 | 78 | 212 | 0.0 | 1.0 | 0.00 | 0.00 | 0.00 | 72 | 1016.7 |
| 20260903033504 | 78 | 201 | 0.0 | 1.0 | 0.00 | 0.00 | 0.00 | 72 | 1016.7 |
| 20260903033003 | 78 | 201 | 0.0 | 1.0 | 0.00 | 0.00 | 0.00 | 72 | 1016.7 |
| 20260903032713 | 78 | 217 | 0.0 | 1.0 | 0.00 | 0.00 | 0.00 | 73 | 1016.7 |
| 20260903032004 | 78 | 243 | 0.0 | 1.0 | 0.00 | 0.00 | 0.00 | 73 | 1016.9 |
| 20260903031714 | 78 | 250 | 0.0 | 1.0 | 0.00 | 0.00 | 0.00 | 72 | 1016.7 |
| 20260903031003 | 78 | 250 | 0.0 | 1.0 | 0.00 | 0.00 | 0.00 | 73 | 1016.6 |
| 20260903030503 | 78 | 223 | 0.0 | 1.0 | 0.00 | 0.00 | 0.00 | 72 | 1016.6 |
| 20260903030003 | 78 | 226 | 0.0 | 1.0 | 0.00 | 0.00 | 0.00 | 72 | 1016.5 |
| 20260903025503 | 78 | 250 | 0.0 | 2.0 | 0.00 | 0.00 | 0.00 | 73 | 1016.6 |
| 20260903025004 | 79 | 257 | 1.0 | 2.0 | 0.00 | 0.00 | 0.00 | 73 | 1016.5 |
| 20260903024504 | 79 | 249 | 0.0 | 1.0 | 0.00 | 0.00 | 0.00 | 73 | 1016.7 |
| 20260903024003 | 79 | 226 | 0.0 | 1.0 | 0.00 | 0.00 | 0.00 | 73 | 1016.7 |
| 20260903023503 | 78 | 0 | 0.0 | 0.0 | 0.00 | 0.00 | 0.00 | 74 | 1016.6 |
| 20260903023004 | 79 | 0 | 0.0 | 0.0 | 0.00 | 0.00 | 0.00 | 74 | 1016.7 |
| 20260903022503 | 79 | 0 | 0.0 | 0.0 | 0.00 | 0.00 | 0.00 | 74 | 1016.7 |
| 20260903022004 | 79 | 0 | 0.0 | 0.0 | 0.00 | 0.00 | 0.00 | 74 | 1016.7 |
| 20260903021503 | 79 | 0 | 0.0 | 0.0 | 0.00 | 0.00 | 0.00 | 73 | 1016.7 |
| 20260903021004 | 79 | 173 | 0.0 | 1.0 | 0.00 | 0.00 | 0.00 | 73 | 1016.6 |
| 20260903020503 | 79 | 167 | 0.0 | 1.0 | 0.00 | 0.00 | 0.00 | 73 | 1016.9 |
| 20260903020213 | 79 | 165 | 0.0 | 1.0 | 0.00 | 0.00 | 0.00 | 73 | 1016.7 |
| 20260903015716 | 79 | 157 | 0.0 | 2.0 | 0.00 | 0.00 | 0.00 | 73 | 1016.9 |
| 20260903015004 | 79 | 162 | 0.0 | 2.0 | 0.00 | 0.00 | 0.00 | 73 | 1016.7 |
| 20260903014504 | 79 | 302 | 1.0 | 2.0 | 0.00 | 0.00 | 0.00 | 73 | 1017.0 |
| 20260903014003 | 79 | 321 | 1.0 | 2.0 | 0.00 | 0.00 | 0.00 | 73 | 1016.8 |
| 20260903013503 | 80 | 339 | 1.0 | 2.0 | 0.00 | 0.00 | 0.00 | 73 | 1016.8 |
| 20260903013004 | 80 | 53 | 0.0 | 2.0 | 0.00 | 0.00 | 0.00 | 72 | 1016.9 |
| 20260903012504 | 80 | 81 | 0.0 | 2.0 | 0.00 | 0.00 | 0.00 | 71 | 1017.0 |
| 20260903012003 | 80 | 36 | 0.0 | 2.0 | 0.00 | 0.00 | 0.00 | 70 | 1017.0 |
| 20260903011504 | 80 | 24 | 0.0 | 2.0 | 0.00 | 0.00 | 0.00 | 70 | 1016.9 |
| 20260903011004 | 80 | 230 | 0.0 | 1.0 | 0.00 | 0.00 | 0.00 | 69 | 1016.9 |
| 20260903010503 | 80 | 276 | 0.0 | 2.0 | 0.00 | 0.00 | 0.00 | 67 | 1017.0 |
| 20260903010003 | 80 | 275 | 1.0 | 3.0 | 0.00 | 0.00 | 0.00 | 67 | 1016.8 |
| 20260903005504 | 80 | 279 | 1.0 | 3.0 | 0.00 | 0.00 | 0.00 | 67 | 1016.8 |
| 20260903005003 | 79 | 278 | 1.0 | 2.0 | 0.00 | 0.00 | 0.00 | 67 | 1017.0 |
| 20260903004503 | 79 | 267 | 0.0 | 2.0 | 0.00 | 0.00 | 0.00 | 69 | 1016.9 |
| 20260903004003 | 80 | 0 | 0.0 | 0.0 | 0.00 | 0.00 | 0.00 | 69 | 1016.9 |
| 20260903003503 | 80 | 187 | 0.0 | 0.0 | 0.00 | 0.00 | 0.00 | 69 | 1017.0 |
| 20260903003217 | 80 | 185 | 0.0 | 1.0 | 0.00 | 0.00 | 0.00 | 69 | 1016.8 |
| 20260903002503 | 80 | 180 | 0.0 | 1.0 | 0.00 | 0.00 | 0.00 | 71 | 1017.1 |
| 20260903002003 | 80 | 185 | 0.0 | 1.0 | 0.00 | 0.00 | 0.00 | 73 | 1017.1 |
| 20260903001503 | 80 | 189 | 0.0 | 1.0 | 0.00 | 0.00 | 0.00 | 75 | 1017.1 |
| 20260903001003 | 80 | 194 | 0.0 | 0.0 | 0.00 | 0.00 | 0.00 | 77 | 1017.0 |
| 20260903000504 | 80 | 189 | 0.0 | 1.0 | 0.00 | 0.00 | 0.00 | 77 | 1017.1 |
| 20260903000004 | 80 | 193 | 0.0 | 1.0 | 0.00 | 0.00 | 0.00 | 77 | 1017.1 |
| 20260902235504 | 81 | 187 | 0.0 | 1.0 | 0.00 | 0.00 | 0.00 | 77 | 1017.2 |
| 20260902235004 | 81 | 192 | 0.0 | 1.0 | 0.00 | 0.00 | 0.00 | 77 | 1017.3 |
| 20260902234503 | 81 | 196 | 0.0 | 1.0 | 0.00 | 0.00 | 0.00 | 77 | 1017.2 |
| 20260902234004 | 81 | 184 | 0.0 | 1.0 | 0.00 | 0.00 | 0.00 | 76 | 1017.5 |
| 20260902233503 | 81 | 188 | 0.0 | 1.0 | 0.00 | 0.00 | 0.00 | 76 | 1017.4 |
| 20260902233003 | 81 | 193 | 0.0 | 1.0 | 0.00 | 0.00 | 0.00 | 76 | 1017.6 |
| 20260902232504 | 81 | 192 | 0.0 | 1.0 | 0.00 | 0.00 | 0.00 | 77 | 1017.8 |
| 20260902232004 | 81 | 0 | 0.0 | 0.0 | 0.00 | 0.00 | 0.00 | 77 | 1017.6 |
| 20260902231716 | 81 | 188 | 0.0 | 0.0 | 0.00 | 0.00 | 0.00 | 78 | 1017.7 |
| 20260902230503 | 81 | 184 | 0.0 | 1.0 | 0.00 | 0.00 | 0.00 | 78 | 1017.8 |
| 20260902230003 | 81 | 187 | 0.0 | 0.0 | 0.00 | 0.00 | 0.00 | 78 | 1017.7 |
| 20260902225503 | 82 | 158 | 0.0 | 1.0 | 0.00 | 0.00 | 0.00 | 78 | 1017.7 |
| 20260902225004 | 82 | 194 | 0.0 | 1.0 | 0.00 | 0.00 | 0.00 | 78 | 1017.8 |
| 20260902224504 | 82 | 198 | 0.0 | 1.0 | 0.00 | 0.00 | 0.00 | 78 | 1018.0 |
| 20260902224003 | 82 | 186 | 0.0 | 1.0 | 0.00 | 0.00 | 0.00 | 78 | 1017.8 |
| 20260902223504 | 81 | 190 | 0.0 | 1.0 | 0.00 | 0.00 | 0.00 | 78 | 1017.9 |
| 20260902223004 | 81 | 189 | 0.0 | 1.0 | 0.00 | 0.00 | 0.00 | 78 | 1017.9 |
| 20260902222504 | 82 | 152 | 0.0 | 0.0 | 0.00 | 0.00 | 0.00 | 78 | 1017.7 |
| 20260902222217 | 82 | 183 | 0.0 | 1.0 | 0.00 | 0.00 | 0.00 | 78 | 1017.7 |
| 20260902221504 | 82 | 179 | 0.0 | 1.0 | 0.00 | 0.00 | 0.00 | 77 | 1017.8 |
| 20260902221004 | 82 | 188 | 0.0 | 1.0 | 0.00 | 0.00 | 0.00 | 77 | 1017.7 |
| 20260902220716 | 82 | 192 | 0.0 | 1.0 | 0.00 | 0.00 | 0.00 | 77 | 1017.7 |
| 20260902220005 | 82 | 178 | 0.0 | 1.0 | 0.00 | 0.00 | 0.00 | 77 | 1017.8 |
| 20260902215504 | 82 | 194 | 0.0 | 1.0 | 0.00 | 0.00 | 0.00 | 77 | 1017.5 |
| 20260902215214 | 82 | 171 | 0.0 | 1.0 | 0.00 | 0.00 | 0.00 | 76 | 1017.7 |
| 20260902214503 | 82 | 173 | 0.0 | 1.0 | 0.00 | 0.00 | 0.00 | 76 | 1017.9 |
| 20260902214215 | 82 | 178 | 0.0 | 1.0 | 0.00 | 0.00 | 0.00 | 76 | 1017.7 |
| 20260902213713 | 82 | 182 | 0.0 | 1.0 | 0.00 | 0.00 | 0.00 | 76 | 1017.9 |
| 20260902213003 | 83 | 173 | 0.0 | 1.0 | 0.00 | 0.00 | 0.00 | 76 | 1018.0 |
| 20260902212503 | 83 | 173 | 0.0 | 1.0 | 0.00 | 0.00 | 0.00 | 76 | 1017.8 |
| 20260902212004 | 83 | 175 | 0.0 | 1.0 | 0.00 | 0.00 | 0.00 | 77 | 1017.9 |
| 20260902211503 | 83 | 190 | 0.0 | 1.0 | 0.00 | 0.00 | 0.00 | 77 | 1017.9 |
| 20260902211004 | 83 | 190 | 0.0 | 1.0 | 0.00 | 0.00 | 0.00 | 77 | 1018.0 |
| 20260902210716 | 83 | 197 | 0.0 | 1.0 | 0.00 | 0.00 | 0.00 | 77 | 1017.7 |
| 20260902210004 | 83 | 187 | 0.0 | 1.0 | 0.00 | 0.00 | 0.00 | 77 | 1017.7 |
| 20260902205504 | 83 | 181 | 0.0 | 1.0 | 0.00 | 0.00 | 0.00 | 77 | 1017.8 |
| 20260902205003 | 83 | 175 | 0.0 | 1.0 | 0.00 | 0.00 | 0.00 | 77 | 1017.5 |
| 20260902204713 | 83 | 175 | 0.0 | 1.0 | 0.00 | 0.00 | 0.00 | 77 | 1017.6 |
| 20260902204004 | 83 | 190 | 0.0 | 2.0 | 0.00 | 0.00 | 0.00 | 78 | 1017.8 |
| 20260902203503 | 83 | 191 | 0.0 | 2.0 | 0.00 | 0.00 | 0.00 | 78 | 1017.8 |
| 20260902203004 | 83 | 189 | 1.0 | 2.0 | 0.00 | 0.00 | 0.00 | 78 | 1017.4 |
| 20260902202715 | 83 | 189 | 0.0 | 2.0 | 0.00 | 0.00 | 0.00 | 78 | 1017.5 |
| 20260902202003 | 83 | 194 | 0.0 | 1.0 | 0.00 | 0.00 | 0.00 | 78 | 1017.5 |
| 20260902201504 | 83 | 193 | 1.0 | 2.0 | 0.00 | 0.00 | 0.00 | 78 | 1017.9 |
| 20260902201003 | 83 | 190 | 1.0 | 2.0 | 0.00 | 0.00 | 0.00 | 78 | 1017.8 |
| 20260902200503 | 83 | 190 | 0.0 | 2.0 | 0.00 | 0.00 | 0.00 | 77 | 1017.9 |
| 20260902200004 | 83 | 196 | 0.0 | 2.0 | 0.00 | 0.00 | 0.00 | 76 | 1017.9 |
| 20260902195504 | 83 | 196 | 0.0 | 2.0 | 0.00 | 0.00 | 0.00 | 76 | 1017.9 |
| 20260902195004 | 83 | 195 | 0.0 | 1.0 | 0.00 | 0.00 | 0.00 | 77 | 1017.7 |
| 20260902194503 | 83 | 160 | 0.0 | 1.0 | 0.00 | 0.00 | 0.00 | 77 | 1017.8 |
| 20260902194003 | 83 | 155 | 0.0 | 1.0 | 0.00 | 0.00 | 0.00 | 77 | 1017.9 |
| 20260902193504 | 83 | 182 | 0.0 | 1.0 | 0.00 | 0.00 | 0.00 | 76 | 1017.9 |
| 20260902193004 | 83 | 180 | 0.0 | 1.0 | 0.00 | 0.00 | 0.00 | 76 | 1017.6 |
| 20260902192716 | 83 | 179 | 0.0 | 1.0 | 0.00 | 0.00 | 0.00 | 76 | 1017.7 |
| 20260902192004 | 83 | 195 | 0.0 | 1.0 | 0.00 | 0.00 | 0.00 | 77 | 1017.7 |
| 20260902191504 | 83 | 199 | 1.0 | 1.0 | 0.00 | 0.00 | 0.00 | 77 | 1017.6 |
| 20260902191003 | 83 | 194 | 0.0 | 2.0 | 0.00 | 0.00 | 0.00 | 77 | 1017.8 |
| 20260902190712 | 83 | 189 | 0.0 | 2.0 | 0.00 | 0.00 | 0.00 | 77 | 1017.7 |
| 20260902190004 | 83 | 176 | 0.0 | 1.0 | 0.00 | 0.00 | 0.00 | 77 | 1017.5 |
| 20260902185504 | 83 | 185 | 0.0 | 1.0 | 0.00 | 0.00 | 0.00 | 77 | 1017.6 |
| 20260902185003 | 83 | 190 | 0.0 | 1.0 | 0.00 | 0.00 | 0.00 | 78 | 1017.6 |
| 20260902184504 | 83 | 184 | 0.0 | 1.0 | 0.00 | 0.00 | 0.00 | 78 | 1017.5 |
| 20260902184004 | 83 | 193 | 1.0 | 3.0 | 0.00 | 0.00 | 0.00 | 77 | 1017.4 |
| 20260902183715 | 83 | 190 | 1.0 | 3.0 | 0.00 | 0.00 | 0.00 | 78 | 1017.3 |
| 20260902183213 | 84 | 188 | 1.0 | 3.0 | 0.00 | 0.00 | 0.00 | 77 | 1017.5 |
| 20260902182504 | 84 | 166 | 0.0 | 2.0 | 0.00 | 0.00 | 0.00 | 77 | 1017.3 |
| 20260902182214 | 84 | 170 | 1.0 | 2.0 | 0.00 | 0.00 | 0.00 | 76 | 1017.1 |
| 20260902181504 | 84 | 164 | 1.0 | 4.0 | 0.00 | 0.00 | 0.00 | 76 | 1017.1 |
| 20260902181004 | 84 | 148 | 1.0 | 4.0 | 0.00 | 0.00 | 0.00 | 75 | 1017.1 |
| 20260902180503 | 84 | 129 | 1.0 | 3.0 | 0.00 | 0.00 | 0.00 | 75 | 1017.0 |
| 20260902180005 | 84 | 123 | 1.0 | 2.0 | 0.00 | 0.00 | 0.00 | 75 | 1016.8 |
| 20260902175503 | 84 | 158 | 1.0 | 4.0 | 0.00 | 0.00 | 0.00 | 75 | 1016.9 |
| 20260902175004 | 84 | 156 | 0.0 | 4.0 | 0.00 | 0.00 | 0.00 | 75 | 1016.9 |
| 20260902174503 | 84 | 109 | 0.0 | 2.0 | 0.00 | 0.00 | 0.00 | 75 | 1017.0 |
| 20260902174004 | 84 | 105 | 1.0 | 3.0 | 0.00 | 0.00 | 0.00 | 74 | 1017.0 |
| 20260902173504 | 84 | 95 | 1.0 | 3.0 | 0.00 | 0.00 | 0.00 | 75 | 1016.9 |
| 20260902173005 | 84 | 126 | 2.0 | 7.0 | 0.00 | 0.00 | 0.00 | 74 | 1017.0 |
| 20260902172503 | 84 | 135 | 2.0 | 7.0 | 0.00 | 0.00 | 0.00 | 73 | 1016.8 |
| 20260902172004 | 84 | 118 | 2.0 | 7.0 | 0.00 | 0.00 | 0.00 | 73 | 1017.0 |
| 20260902171718 | 85 | 132 | 2.0 | 7.0 | 0.00 | 0.00 | 0.00 | 73 | 1017.0 |
| 20260902171004 | 85 | 131 | 2.0 | 6.0 | 0.00 | 0.00 | 0.00 | 72 | 1016.8 |
| 20260902170714 | 85 | 122 | 2.0 | 4.0 | 0.00 | 0.00 | 0.00 | 72 | 1016.9 |
| 20260902170003 | 85 | 149 | 2.0 | 7.0 | 0.00 | 0.00 | 0.00 | 72 | 1016.9 |
| 20260902165503 | 85 | 143 | 2.0 | 7.0 | 0.00 | 0.00 | 0.00 | 72 | 1016.9 |
| 20260902165003 | 85 | 129 | 2.0 | 6.0 | 0.00 | 0.00 | 0.00 | 71 | 1016.8 |
| 20260902164504 | 86 | 129 | 2.0 | 6.0 | 0.00 | 0.00 | 0.00 | 71 | 1016.8 |
| 20260902164003 | 86 | 118 | 2.0 | 7.0 | 0.00 | 0.00 | 0.00 | 70 | 1016.7 |
| 20260902163716 | 86 | 101 | 1.0 | 7.0 | 0.00 | 0.00 | 0.00 | 69 | 1016.6 |
| 20260902163004 | 87 | 93 | 1.0 | 6.0 | 0.00 | 0.00 | 0.00 | 65 | 1016.6 |
| 20260902162712 | 87 | 89 | 2.0 | 6.0 | 0.00 | 0.00 | 0.00 | 65 | 1016.8 |
| 20260902162004 | 87 | 100 | 2.0 | 4.0 | 0.00 | 0.00 | 0.00 | 62 | 1016.7 |
| 20260902161504 | 87 | 120 | 3.0 | 6.0 | 0.00 | 0.00 | 0.00 | 60 | 1016.8 |
| 20260902161003 | 87 | 136 | 3.0 | 6.0 | 0.00 | 0.00 | 0.00 | 63 | 1017.0 |
| 20260902160503 | 88 | 130 | 3.0 | 8.0 | 0.00 | 0.00 | 0.00 | 62 | 1017.0 |
| 20260902160005 | 88 | 103 | 2.0 | 8.0 | 0.00 | 0.00 | 0.00 | 62 | 1016.9 |
| 20260902155504 | 88 | 73 | 2.0 | 8.0 | 0.00 | 0.00 | 0.00 | 59 | 1016.9 |
| 20260902155004 | 88 | 67 | 2.0 | 8.0 | 0.00 | 0.00 | 0.00 | 58 | 1016.9 |
| 20260902154504 | 88 | 66 | 2.0 | 10.0 | 0.00 | 0.00 | 0.00 | 59 | 1017.0 |
| 20260902154003 | 88 | 74 | 2.0 | 10.0 | 0.00 | 0.00 | 0.00 | 58 | 1016.9 |
| 20260902153503 | 88 | 81 | 2.0 | 8.0 | 0.00 | 0.00 | 0.00 | 60 | 1016.7 |
| 20260902153004 | 89 | 95 | 2.0 | 8.0 | 0.00 | 0.00 | 0.00 | 59 | 1016.7 |
| 20260902152503 | 88 | 98 | 3.0 | 10.0 | 0.00 | 0.00 | 0.00 | 61 | 1016.7 |
| 20260902152216 | 88 | 93 | 3.0 | 10.0 | 0.00 | 0.00 | 0.00 | 61 | 1016.7 |
| 20260902151714 | 89 | 78 | 3.0 | 9.0 | 0.00 | 0.00 | 0.00 | 59 | 1016.8 |
| 20260902151004 | 89 | 91 | 3.0 | 11.0 | 0.00 | 0.00 | 0.00 | 58 | 1016.7 |
| 20260902150503 | 89 | 93 | 3.0 | 11.0 | 0.00 | 0.00 | 0.00 | 59 | 1016.8 |
| 20260902150003 | 89 | 86 | 3.0 | 10.0 | 0.00 | 0.00 | 0.00 | 58 | 1016.6 |
| 20260902145503 | 89 | 82 | 3.0 | 8.0 | 0.00 | 0.00 | 0.00 | 58 | 1016.7 |
| 20260902145003 | 89 | 89 | 4.0 | 10.0 | 0.00 | 0.00 | 0.00 | 57 | 1016.6 |
| 20260902144504 | 89 | 98 | 3.0 | 10.0 | 0.00 | 0.00 | 0.00 | 56 | 1016.6 |
| 20260902144003 | 89 | 92 | 3.0 | 13.0 | 0.00 | 0.00 | 0.00 | 54 | 1016.7 |
| 20260902143504 | 89 | 95 | 3.0 | 13.0 | 0.00 | 0.00 | 0.00 | 55 | 1016.8 |
| 20260902143216 | 90 | 88 | 3.0 | 9.0 | 0.00 | 0.00 | 0.00 | 55 | 1016.7 |
| 20260902142504 | 89 | 88 | 4.0 | 9.0 | 0.00 | 0.00 | 0.00 | 54 | 1016.9 |
| 20260902142005 | 89 | 96 | 4.0 | 11.0 | 0.00 | 0.00 | 0.00 | 54 | 1016.8 |
| 20260902141504 | 89 | 89 | 4.0 | 11.0 | 0.00 | 0.00 | 0.00 | 53 | 1016.8 |
| 20260902141003 | 89 | 91 | 3.0 | 10.0 | 0.00 | 0.00 | 0.00 | 53 | 1016.7 |
| 20260902140503 | 90 | 94 | 3.0 | 10.0 | 0.00 | 0.00 | 0.00 | 55 | 1016.8 |
| 20260902140003 | 89 | 94 | 3.0 | 8.0 | 0.00 | 0.00 | 0.00 | 54 | 1017.0 |
| 20260902135503 | 90 | 109 | 3.0 | 10.0 | 0.00 | 0.00 | 0.00 | 53 | 1016.9 |
| 20260902135004 | 90 | 108 | 4.0 | 10.0 | 0.00 | 0.00 | 0.00 | 54 | 1017.1 |
| 20260902134504 | 90 | 100 | 4.0 | 8.0 | 0.00 | 0.00 | 0.00 | 55 | 1017.0 |
| 20260902134003 | 89 | 95 | 4.0 | 11.0 | 0.00 | 0.00 | 0.00 | 54 | 1017.1 |
| 20260902133503 | 90 | 73 | 3.0 | 11.0 | 0.00 | 0.00 | 0.00 | 56 | 1017.2 |
| 20260902133003 | 89 | 69 | 3.0 | 8.0 | 0.00 | 0.00 | 0.00 | 54 | 1017.3 |
| 20260902132714 | 89 | 85 | 3.0 | 8.0 | 0.00 | 0.00 | 0.00 | 55 | 1017.2 |
| 20260902132003 | 91 | 134 | 3.0 | 10.0 | 0.00 | 0.00 | 0.00 | 55 | 1017.3 |
| 20260902131504 | 91 | 105 | 3.0 | 10.0 | 0.00 | 0.00 | 0.00 | 56 | 1017.4 |
| 20260902131003 | 90 | 84 | 3.0 | 9.0 | 0.00 | 0.00 | 0.00 | 54 | 1017.3 |
| 20260902130504 | 89 | 100 | 3.0 | 8.0 | 0.00 | 0.00 | 0.00 | 55 | 1017.5 |
| 20260902130004 | 90 | 117 | 3.0 | 9.0 | 0.00 | 0.00 | 0.00 | 50 | 1017.5 |
| 20260902125503 | 90 | 103 | 3.0 | 9.0 | 0.00 | 0.00 | 0.00 | 53 | 1017.6 |
| 20260902125004 | 90 | 90 | 2.0 | 8.0 | 0.00 | 0.00 | 0.00 | 51 | 1017.6 |
| 20260902124503 | 90 | 88 | 2.0 | 7.0 | 0.00 | 0.00 | 0.00 | 51 | 1017.5 |
| 20260902124004 | 90 | 81 | 2.0 | 8.0 | 0.00 | 0.00 | 0.00 | 51 | 1017.7 |
| 20260902123503 | 89 | 98 | 3.0 | 8.0 | 0.00 | 0.00 | 0.00 | 54 | 1017.7 |
| 20260902123003 | 91 | 118 | 2.0 | 7.0 | 0.00 | 0.00 | 0.00 | 54 | 1017.7 |
| 20260902122504 | 91 | 122 | 2.0 | 7.0 | 0.00 | 0.00 | 0.00 | 52 | 1017.8 |
| 20260902122003 | 90 | 122 | 3.0 | 6.0 | 0.00 | 0.00 | 0.00 | 53 | 1017.9 |